Location: Juzet
(42.9779°N, 0.7597°E)
Time: 17:45:43
(UTC+00:00)

ARIANE 5 R/B - Pass Details

Date: 14 July 2020
Orbit: 749 x 794 km, 98.6° (Epoch: 13 August)

Event Time Altitude Azimuth Distance (km) Brightness Sun altitude
Rises 02:51:51 0° 13° (NNE) 3,236 6.9 -14.6°
Reaches altitude 10° 02:54:08 10° 13° (NNE) 2,313 6.0 -14.3°
Maximum altitude 02:59:15 89° 286° (WNW) 779 2.5 -13.7°
Enters shadow 03:03:30 15° 196° (SSW) 1,974 4.1 -13.2°
